Content
SEND FEEDBACK

Daily
Averages
Monthly
Summary
United Kingdom

LONDON, ENGLAND


Home > Europe > United Kingdom > England
Elevation: 203 feet     Latitude: 51 09N     Longitude: 000 11W

WEATHER
 
SELECT A DAY
Number of Records: 297,098;   Date Range: 7/1/96 - 10/19/14
 
SHARE

PRINT THIS DATA

[ ← Previous Day ]
WEATHER ALMANAC - OCTOBER 6, 2013
[ Next Day → ]
[ °C ]   °F
Weather ElementAverageHighLow
Temperature54.9 °F64.4 °F (1:20 pm)44.6 °F (6:20 am)
Dewpoint50.3 °F53.6 °F (10:20 am)44.6 °F (4:50 am)
Humidity85.9 %100 % (1:20 am)59 % (1:20 pm)
Barometer30.29 in30.30 in (6:50 am)30.27 in (12:50 am)
Wind Speed3 mph9.2 mph (2:20 pm)
Weather ElementAverage
Visibility4.7 mi
Wind DirectionESE (116.6 °)

Weather ElementTotal
Precipitation---
Heating Degree Days10.5 (Base 65)
Growing Degree Days4.5 (Base 50)
Averaged from 47 records on October 6, 2013
WEATHER CONDITIONS BREAKOUT
WIND DIRECTION BREAKOUT
WEATHER BY HOUR - OCTOBER 6, 2013
[ °C ]   °F
Local TimeTemperatureDewpointHumidityBarometerVisibilityWind DirectionWind SpeedGust SpeedPrecipitationEventsConditions
12:50 AM51.8 °F50.0 °F94 %30.27 inVariable2.3 mphClear
1:20 AM50.0 °F50.0 °F100 %30.27 inCalmClear
1:50 AM50.0 °F48.2 °F94 %30.27 inCalmClear
2:20 AM50.0 °F48.2 °F94 %30.27 inCalmScattered Clouds
2:50 AM50.0 °F48.2 °F94 %30.27 in5.6 miVariable2.3 mphMostly Cloudy
3:20 AM48.2 °F48.2 °F100 %30.27 in5.6 miVariable2.3 mphScattered Clouds
3:50 AM46.4 °F46.4 °F100 %30.27 in4.3 miVariable2.3 mphFogPatches of Fog
4:20 AM46.4 °F46.4 °F100 %30.27 in3.1 miCalm
4:50 AM46.4 °F44.6 °F93 %30.27 in0.6 miCalmFogFog
5:20 AM46.4 °F46.4 °F100 %30.27 in0.6 miCalmFogFog
5:50 AM46.4 °F46.4 °F100 %30.27 in0.6 miCalmFogFog
6:20 AM44.6 °F44.6 °F100 %30.27 in0.5 miWSW (240°)2.3 mphFogFog
6:50 AM44.6 °F44.6 °F100 %30.30 in0.9 miCalmFogPatches of Fog
7:20 AM44.6 °F44.6 °F100 %30.30 in1.2 miCalmPartly Cloudy
7:50 AM44.6 °F44.6 °F100 %30.30 in2.5 miCalmFogPatches of Fog
8:20 AM46.4 °F46.4 °F100 %30.30 in3.1 miCalmFogPatches of Fog
8:50 AM48.2 °F48.2 °F100 %30.30 in4.3 miCalm
9:20 AM51.8 °F50.0 °F94 %30.30 in5.0 miCalmFog
9:50 AM55.4 °F51.8 °F88 %30.30 inCalmClear
10:20 AM57.2 °F53.6 °F88 %30.30 in6.2 miCalmPartly Cloudy
10:50 AM60.8 °F53.6 °F77 %30.30 inVariable3.5 mphClear
11:20 AM62.6 °F53.6 °F72 %30.30 in6.2 miVariable2.3 mphPartly Cloudy
11:50 AM62.6 °F53.6 °F72 %30.30 in6.2 miSW (230°)4.6 mphScattered Clouds
12:20 PM62.6 °F51.8 °F68 %30.30 in6.2 miSW (230°)6.9 mphScattered Clouds
12:50 PM62.6 °F51.8 °F68 %30.30 in6.2 miWSW (240°)6.9 mphScattered Clouds
1:20 PM64.4 °F50.0 °F59 %30.30 in6.2 miSW (230°)8.1 mphPartly Cloudy
1:50 PM64.4 °F51.8 °F64 %30.30 in6.2 miSW (230°)8.1 mphScattered Clouds
2:20 PM64.4 °F50.0 °F59 %30.30 in6.2 miWSW (250°)9.2 mphPartly Cloudy
2:50 PM64.4 °F51.8 °F64 %30.27 in6.2 miWNW (290°)8.1 mphPartly Cloudy
3:20 PM62.6 °F51.8 °F68 %30.27 in6.2 miWest (270°)6.9 mphScattered Clouds
3:50 PM64.4 °F51.8 °F64 %30.27 in6.2 miWSW (250°)6.9 mphScattered Clouds
4:20 PM64.4 °F51.8 °F64 %30.27 in6.2 miWSW (240°)6.9 mphPartly Cloudy
4:50 PM62.6 °F51.8 °F68 %30.27 in6.2 miWSW (240°)3.5 mphPartly Cloudy
5:20 PM62.6 °F51.8 °F68 %30.27 in6.2 miWSW (250°)4.6 mphPartly Cloudy
5:50 PM62.6 °F53.6 °F72 %30.27 in6.2 miSW (230°)3.5 mphPartly Cloudy
6:20 PM60.8 °F53.6 °F77 %30.27 inSSW (210°)3.5 mphClear
6:50 PM59.0 °F53.6 °F82 %30.27 inSSW (210°)4.6 mphClear
7:20 PM59.0 °F53.6 °F82 %30.30 in6.2 miSSW (210°)4.6 mphScattered Clouds
7:50 PM57.2 °F53.6 °F88 %30.30 in6.2 miSSW (200°)4.6 mphScattered Clouds
8:20 PM57.2 °F53.6 °F88 %30.30 in6.2 miSSW (210°)4.6 mphPartly Cloudy
8:50 PM55.4 °F53.6 °F94 %30.30 inSSW (210°)4.6 mphClear
9:20 PM55.4 °F53.6 °F94 %30.30 inSSW (210°)3.5 mphClear
9:50 PM53.6 °F51.8 °F94 %30.30 inSSW (210°)3.5 mphClear
10:20 PM53.6 °F51.8 °F94 %30.30 inSW (220°)2.3 mphClear
10:50 PM51.8 °F51.8 °F100 %30.30 inCalmClear
11:20 PM51.8 °F51.8 °F100 %30.30 inSouth (170°)2.3 mphClear
11:50 PM50.0 °F50.0 °F100 %30.30 in5.0 miCalmFogFog
Hourly data recorded from EGKK, located miles away from London, England







STORIES FROM OUR PARTNERS